| time (UTC) | temp C | wind direction | speed KPH | gust KPH | rain 1hr cm | rain 24hr cm | rain mn cm | humidity % | barometer mb |
| 20260507020950 | 15 | 268 | 0.0 | 0.0 | 0.00 | 0.00 | 0.00 | 77 | 989.5 |
| 20260507020444 | 15 | 257 | 0.0 | 1.6 | 0.00 | 0.00 | 0.00 | 77 | 989.7 |
| 20260507015938 | 15 | 257 | 0.0 | 1.6 | 0.00 | 0.00 | 0.00 | 77 | 989.5 |
| 20260507015432 | 16 | 258 | 0.0 | 0.0 | 0.00 | 0.00 | 0.00 | 76 | 989.4 |
| 20260507014419 | 16 | 207 | 0.0 | 4.8 | 0.00 | 0.00 | 0.00 | 76 | 989.3 |
| 20260507013408 | 16 | 248 | 0.0 | 1.6 | 0.00 | 0.00 | 0.00 | 76 | 989.8 |
| 20260507012355 | 16 | 238 | 0.0 | 1.6 | 0.00 | 0.00 | 0.00 | 77 | 989.2 |
| 20260507011850 | 16 | 238 | 0.0 | 0.0 | 0.00 | 0.00 | 0.00 | 77 | 989.2 |
| 20260507010838 | 16 | 238 | 0.0 | 0.0 | 0.00 | 0.00 | 0.00 | 78 | 989.1 |
| 20260507010332 | 16 | 238 | 0.0 | 0.0 | 0.00 | 0.00 | 0.00 | 79 | 988.7 |
| 20260507005826 | 16 | 238 | 0.0 | 0.0 | 0.00 | 0.00 | 0.00 | 78 | 989.0 |
| 20260507005320 | 16 | 238 | 0.0 | 0.0 | 0.00 | 0.00 | 0.00 | 78 | 989.3 |
| 20260507004312 | 17 | 238 | 0.0 | 0.0 | 0.00 | 0.00 | 0.00 | 79 | 989.6 |
| 20260507003812 | 17 | 238 | 0.0 | 0.0 | 0.00 | 0.00 | 0.00 | 79 | 989.4 |
| 20260507002308 | 17 | 238 | 0.0 | 0.0 | 0.00 | 0.00 | 0.00 | 78 | 989.2 |
| 20260507001805 | 17 | 238 | 0.0 | 0.0 | 0.00 | 0.00 | 0.00 | 78 | 989.0 |
| 20260507001305 | 17 | 238 | 0.0 | 0.0 | 0.00 | 0.00 | 0.00 | 78 | 989.1 |
| 20260507000802 | 17 | 238 | 0.0 | 0.0 | 0.00 | 0.00 | 0.00 | 78 | 988.8 |
| 20260507000300 | 17 | 238 | 0.0 | 0.0 | 0.00 | 0.00 | 0.00 | 78 | 988.9 |
| 20260506235256 | 18 | 238 | 0.0 | 0.0 | 0.00 | 0.00 | 0.00 | 79 | 988.6 |
| 20260506234756 | 18 | 238 | 0.0 | 1.6 | 0.00 | 0.00 | 0.00 | 79 | 988.4 |
| 20260506233756 | 18 | 238 | 0.0 | 0.0 | 0.00 | 0.00 | 0.00 | 80 | 988.4 |
| 20260506233254 | 18 | 238 | 0.0 | 0.0 | 0.00 | 0.00 | 0.00 | 79 | 988.1 |
| 20260506232754 | 18 | 238 | 0.0 | 0.0 | 0.00 | 0.00 | 0.00 | 78 | 987.9 |
| 20260506232255 | 18 | 238 | 0.0 | 0.0 | 0.00 | 0.00 | 0.00 | 77 | 987.9 |
| 20260506231751 | 18 | 238 | 0.0 | 0.0 | 0.00 | 0.00 | 0.00 | 77 | 987.7 |
| 20260506231253 | 18 | 238 | 0.0 | 0.0 | 0.00 | 0.00 | 0.00 | 77 | 987.7 |
| 20260506230748 | 19 | 238 | 0.0 | 0.0 | 0.00 | 0.00 | 0.00 | 77 | 987.7 |
| 20260506230249 | 19 | 238 | 0.0 | 1.6 | 0.00 | 0.00 | 0.00 | 77 | 987.6 |
| 20260506225747 | 19 | 236 | 0.0 | 1.6 | 0.00 | 0.00 | 0.00 | 77 | 987.7 |
| 20260506225247 | 19 | 231 | 0.0 | 1.6 | 0.00 | 0.00 | 0.00 | 77 | 987.7 |
| 20260506224744 | 19 | 231 | 0.0 | 4.8 | 0.00 | 0.00 | 0.00 | 78 | 987.5 |
| 20260506223745 | 19 | 213 | 0.0 | 0.0 | 0.00 | 0.00 | 0.00 | 80 | 987.6 |
| 20260506222742 | 20 | 245 | 0.0 | 3.2 | 0.00 | 0.00 | 0.00 | 82 | 987.6 |
| 20260506222241 | 20 | 245 | 0.0 | 3.2 | 0.00 | 0.00 | 0.00 | 81 | 987.4 |
| 20260506221743 | 20 | 235 | 0.0 | 0.0 | 0.00 | 0.00 | 0.00 | 80 | 987.4 |
| 20260506221242 | 20 | 235 | 0.0 | 1.6 | 0.00 | 0.00 | 0.00 | 80 | 987.3 |
| 20260506220743 | 20 | 234 | 0.0 | 1.6 | 0.00 | 0.00 | 0.00 | 80 | 987.2 |
| 20260506215738 | 20 | 264 | 0.0 | 1.6 | 0.00 | 0.00 | 0.00 | 80 | 987.1 |
| 20260506215238 | 20 | 267 | 0.0 | 1.6 | 0.00 | 0.00 | 0.00 | 80 | 986.8 |
| 20260506214739 | 20 | 268 | 0.0 | 0.0 | 0.00 | 0.00 | 0.00 | 82 | 986.9 |
| 20260506214238 | 20 | 268 | 0.0 | 0.0 | 0.00 | 0.00 | 0.00 | 81 | 986.9 |
| 20260506213737 | 20 | 267 | 0.0 | 0.0 | 0.00 | 0.00 | 0.00 | 82 | 986.8 |
| 20260506213239 | 20 | 268 | 0.0 | 0.0 | 0.00 | 0.00 | 0.00 | 81 | 987.0 |
| 20260506212238 | 21 | 268 | 0.0 | 0.0 | 0.00 | 0.00 | 0.00 | 80 | 986.9 |
| 20260506211733 | 21 | 268 | 0.0 | 0.0 | 0.00 | 0.00 | 0.00 | 81 | 986.7 |
| 20260506211233 | 21 | 268 | 0.0 | 0.0 | 0.00 | 0.00 | 0.00 | 81 | 986.7 |
| 20260506210735 | 20 | 268 | 0.0 | 0.0 | 0.00 | 0.00 | 0.00 | 82 | 986.6 |
| 20260506210234 | 20 | 268 | 0.0 | 0.0 | 0.00 | 0.00 | 0.00 | 82 | 986.5 |
| 20260506205733 | 20 | 268 | 0.0 | 0.0 | 0.00 | 0.00 | 0.00 | 82 | 986.2 |
| 20260506204734 | 20 | 268 | 0.0 | 1.6 | 0.00 | 0.00 | 0.00 | 83 | 986.2 |
| 20260506203735 | 20 | 268 | 0.0 | 0.0 | 0.00 | 0.00 | 0.00 | 85 | 986.2 |
| 20260506203235 | 20 | 268 | 0.0 | 0.0 | 0.00 | 0.00 | 0.00 | 85 | 986.1 |
| 20260506202733 | 20 | 268 | 0.0 | 0.0 | 0.00 | 0.00 | 0.00 | 84 | 986.2 |
| 20260506201235 | 20 | 268 | 0.0 | 0.0 | 0.00 | 0.00 | 0.00 | 83 | 986.3 |
| 20260506200732 | 20 | 268 | 0.0 | 0.0 | 0.00 | 0.00 | 0.00 | 83 | 986.3 |
| 20260506200230 | 20 | 268 | 0.0 | 0.0 | 0.00 | 0.00 | 0.00 | 82 | 986.2 |
| 20260506195731 | 20 | 268 | 0.0 | 0.0 | 0.00 | 0.00 | 0.00 | 82 | 986.3 |
| 20260506195232 | 20 | 268 | 0.0 | 0.0 | 0.00 | 0.00 | 0.00 | 81 | 986.3 |
| 20260506194728 | 20 | 268 | 0.0 | 0.0 | 0.00 | 0.00 | 0.00 | 80 | 986.3 |
| 20260506193722 | 21 | 267 | 0.0 | 0.0 | 0.00 | 0.00 | 0.00 | 77 | 986.2 |
| 20260506193220 | 21 | 268 | 0.0 | 0.0 | 0.00 | 0.00 | 0.00 | 76 | 986.3 |
| 20260506192713 | 21 | 268 | 0.0 | 0.0 | 0.00 | 0.00 | 0.00 | 75 | 986.3 |
| 20260506192210 | 21 | 268 | 0.0 | 0.0 | 0.00 | 0.00 | 0.00 | 74 | 986.2 |
| 20260506191707 | 21 | 267 | 0.0 | 0.0 | 0.00 | 0.00 | 0.00 | 73 | 986.4 |
| 20260506191206 | 22 | 267 | 0.0 | 0.0 | 0.00 | 0.00 | 0.00 | 75 | 986.4 |
| 20260506190207 | 21 | 267 | 0.0 | 0.0 | 0.00 | 0.00 | 0.00 | 75 | 986.4 |
| 20260506185705 | 21 | 267 | 0.0 | 0.0 | 0.00 | 0.00 | 0.00 | 77 | 986.3 |
| 20260506185207 | 21 | 267 | 0.0 | 0.0 | 0.00 | 0.00 | 0.00 | 77 | 986.4 |
| 20260506184704 | 21 | 267 | 0.0 | 0.0 | 0.00 | 0.00 | 0.00 | 79 | 986.5 |
| 20260506184202 | 21 | 268 | 0.0 | 0.0 | 0.00 | 0.00 | 0.00 | 81 | 986.3 |
| 20260506183702 | 20 | 267 | 0.0 | 0.0 | 0.00 | 0.00 | 0.00 | 82 | 986.3 |
| 20260506183202 | 20 | 268 | 0.0 | 0.0 | 0.00 | 0.00 | 0.00 | 82 | 986.3 |
| 20260506182702 | 20 | 267 | 0.0 | 0.0 | 0.00 | 0.00 | 0.00 | 83 | 986.4 |
| 20260506182202 | 20 | 267 | 0.0 | 0.0 | 0.00 | 0.00 | 0.00 | 83 | 986.5 |
| 20260506181659 | 20 | 268 | 0.0 | 0.0 | 0.00 | 0.00 | 0.00 | 82 | 986.6 |
| 20260506180658 | 20 | 268 | 0.0 | 0.0 | 0.00 | 0.00 | 0.00 | 83 | 986.6 |
| 20260506180157 | 20 | 268 | 0.0 | 0.0 | 0.00 | 0.00 | 0.00 | 82 | 986.6 |
| 20260506175659 | 20 | 268 | 0.0 | 0.0 | 0.00 | 0.00 | 0.00 | 81 | 986.6 |
| 20260506175152 | 20 | 268 | 0.0 | 0.0 | 0.00 | 0.00 | 0.00 | 81 | 986.6 |
| 20260506174647 | 20 | 267 | 0.0 | 0.0 | 0.00 | 0.00 | 0.00 | 80 | 986.7 |
| 20260506174141 | 20 | 268 | 0.0 | 0.0 | 0.00 | 0.00 | 0.00 | 79 | 986.6 |
| 20260506173635 | 20 | 267 | 0.0 | 0.0 | 0.00 | 0.00 | 0.00 | 78 | 986.6 |
| 20260506172118 | 20 | 267 | 0.0 | 0.0 | 0.00 | 0.00 | 0.00 | 78 | 986.6 |
| 20260506171611 | 20 | 267 | 0.0 | 0.0 | 0.00 | 0.00 | 0.00 | 77 | 986.6 |
| 20260506171105 | 20 | 255 | 0.0 | 0.0 | 0.00 | 0.00 | 0.00 | 77 | 986.6 |
| 20260506170559 | 20 | 255 | 0.0 | 0.0 | 0.00 | 0.00 | 0.00 | 76 | 986.6 |
| 20260506170054 | 21 | 267 | 0.0 | 0.0 | 0.00 | 0.00 | 0.00 | 76 | 986.6 |
| 20260506165547 | 21 | 267 | 0.0 | 0.0 | 0.00 | 0.00 | 0.00 | 75 | 986.6 |
| 20260506165039 | 21 | 268 | 0.0 | 0.0 | 0.00 | 0.00 | 0.00 | 75 | 986.6 |
| 20260506164534 | 21 | 259 | 0.0 | 0.0 | 0.00 | 0.00 | 0.00 | 74 | 986.6 |
| 20260506163523 | 21 | 259 | 0.0 | 1.6 | 0.00 | 0.00 | 0.00 | 73 | 986.5 |
| 20260506163017 | 21 | 267 | 0.0 | 1.6 | 0.00 | 0.00 | 0.00 | 75 | 986.5 |
| 20260506162511 | 21 | 267 | 0.0 | 1.6 | 0.00 | 0.00 | 0.00 | 77 | 986.6 |
| 20260506162004 | 21 | 267 | 0.0 | 0.0 | 0.00 | 0.00 | 0.00 | 77 | 986.6 |
| 20260506160951 | 20 | 267 | 0.0 | 1.6 | 0.00 | 0.00 | 0.00 | 80 | 986.6 |
| 20260506160447 | 20 | 268 | 0.0 | 0.0 | 0.00 | 0.00 | 0.00 | 82 | 986.6 |
| 20260506155942 | 20 | 267 | 0.0 | 0.0 | 0.00 | 0.00 | 0.00 | 83 | 986.6 |
| 20260506155434 | 19 | 268 | 0.0 | 0.0 | 0.00 | 0.00 | 0.00 | 84 | 986.6 |
| 20260506154928 | 19 | 267 | 0.0 | 0.0 | 0.00 | 0.00 | 0.00 | 85 | 986.7 |
| 20260506154422 | 19 | 268 | 0.0 | 0.0 | 0.00 | 0.00 | 0.00 | 84 | 986.7 |
| 20260506153921 | 18 | 267 | 0.0 | 0.0 | 0.00 | 0.00 | 0.00 | 84 | 986.8 |
| 20260506153420 | 18 | 268 | 0.0 | 1.6 | 0.00 | 0.00 | 0.00 | 85 | 986.9 |
| 20260506152916 | 18 | 267 | 0.0 | 1.6 | 0.00 | 0.00 | 0.00 | 85 | 986.8 |
| 20260506152418 | 18 | 267 | 0.0 | 1.6 | 0.00 | 0.00 | 0.00 | 86 | 986.8 |
| 20260506151917 | 18 | 247 | 0.0 | 1.6 | 0.00 | 0.00 | 0.00 | 86 | 986.8 |
| 20260506151418 | 18 | 267 | 0.0 | 3.2 | 0.00 | 0.00 | 0.00 | 87 | 986.8 |
| 20260506150419 | 18 | 267 | 0.0 | 0.0 | 0.00 | 0.00 | 0.00 | 88 | 986.6 |
| 20260506145917 | 17 | 264 | 0.0 | 0.0 | 0.00 | 0.00 | 0.00 | 90 | 986.6 |
| 20260506145417 | 17 | 172 | 0.0 | 0.0 | 0.00 | 0.00 | 0.00 | 90 | 986.8 |
| 20260506144918 | 17 | 172 | 0.0 | 0.0 | 0.00 | 0.00 | 0.00 | 90 | 986.9 |
| 20260506144415 | 17 | 172 | 0.0 | 0.0 | 0.00 | 0.00 | 0.00 | 90 | 987.2 |
| 20260506143918 | -17 | 0.0 | 0.0 | 0.00 | 0.00 | 0.00 | 987.0 | ||
| 20260506143415 | -17 | 0.0 | 0.0 | 0.00 | 0.00 | 0.00 | 986.9 | ||
| 20260506142817 | -17 | 0.0 | 0.0 | 0.00 | 0.00 | 0.00 | 986.9 | ||
| 20260506141816 | -17 | 0.0 | 0.0 | 0.00 | 0.00 | 0.00 | 987.1 | ||
| 20260506141226 | -17 | 0.0 | 0.0 | 0.00 | 0.00 | 0.00 | 987.1 | ||
| 20260506140722 | -17 | 0.0 | 0.0 | 0.00 | 0.00 | 0.00 | 987.5 | ||
| 20260506140121 | -17 | 0.0 | 0.0 | 0.00 | 0.00 | 0.00 | 987.3 | ||
| 20260506135622 | -17 | 0.0 | 0.0 | 0.00 | 0.00 | 0.00 | 987.4 | ||
| 20260506135116 | -17 | 0.0 | 0.0 | 0.00 | 0.00 | 0.00 | 987.4 | ||
| 20260506134611 | -17 | 0.0 | 0.0 | 0.00 | 0.00 | 0.00 | 987.3 | ||
| 20260506134107 | -17 | 0.0 | 0.0 | 0.00 | 0.00 | 0.00 | 987.4 | ||
| 20260506133521 | -17 | 0.0 | 0.0 | 0.00 | 0.00 | 0.00 | 987.3 | ||
| 20260506133018 | -17 | 0.0 | 0.0 | 0.00 | 0.00 | 0.00 | 987.3 | ||
| 20260506132514 | -17 | 0.0 | 0.0 | 0.00 | 0.00 | 0.00 | 987.1 | ||
| 20260506132012 | -17 | 0.0 | 0.0 | 0.00 | 0.00 | 0.00 | 987.1 | ||
| 20260506131511 | -17 | 0.0 | 0.0 | 0.00 | 0.00 | 0.00 | 987.1 | ||
| 20260506131011 | -17 | 0.0 | 0.0 | 0.00 | 0.00 | 0.00 | 987.3 | ||
| 20260506130419 | -17 | 0.0 | 0.0 | 0.00 | 0.00 | 0.00 | 987.4 | ||
| 20260506125917 | -17 | 0.0 | 0.0 | 0.00 | 0.00 | 0.00 | 987.5 | ||
| 20260506125317 | -17 | 0.0 | 0.0 | 0.00 | 0.00 | 0.00 | 987.4 | ||
| 20260506124816 | -17 | 0.0 | 0.0 | 0.00 | 0.00 | 0.00 | 987.5 | ||
| 20260506124317 | -17 | 0.0 | 0.0 | 0.00 | 0.00 | 0.00 | 987.6 | ||
| 20260506123810 | -17 | 0.0 | 0.0 | 0.00 | 0.00 | 0.00 | 987.6 | ||
| 20260506123301 | -17 | 0.0 | 0.0 | 0.00 | 0.00 | 0.00 | 987.5 | ||
| 20260506122710 | -17 | 0.0 | 0.0 | 0.00 | 0.00 | 0.00 | 987.5 | ||
| 20260506122118 | -17 | 0.0 | 0.0 | 0.00 | 0.00 | 0.00 | 987.5 | ||
| 20260506121006 | -17 | 0.0 | 0.0 | 0.00 | 0.00 | 0.00 | 987.5 | ||
| 20260506115816 | -17 | 0.0 | 0.0 | 0.00 | 0.00 | 0.00 | 987.5 | ||
| 20260506115316 | -17 | 0.0 | 0.0 | 0.00 | 0.00 | 0.00 | 987.6 | ||
| 20260506114817 | -17 | 0.0 | 0.0 | 0.00 | 0.00 | 0.00 | 987.7 | ||
| 20260506113117 | -17 | 0.0 | 0.0 | 0.00 | 0.00 | 0.00 | 987.7 | ||
| 20260506112525 | -17 | 0.0 | 0.0 | 0.00 | 0.00 | 0.00 | 987.7 | ||
| 20260506112023 | -17 | 0.0 | 0.0 | 0.00 | 0.00 | 0.00 | 987.6 | ||
| 20260506111012 | -17 | 0.0 | 0.0 | 0.00 | 0.00 | 0.00 | 987.4 | ||
| 20260506110515 | -17 | 0.0 | 0.0 | 0.00 | 0.00 | 0.00 | 987.4 | ||
| 20260506105415 | -17 | 0.0 | 0.0 | 0.00 | 0.00 | 0.00 | 987.4 | ||
| 20260506104912 | -17 | 0.0 | 0.0 | 0.00 | 0.00 | 0.00 | 987.2 | ||
| 20260506104317 | -17 | 0.0 | 0.0 | 0.00 | 0.00 | 0.00 | 987.3 | ||
| 20260506103816 | -17 | 0.0 | 0.0 | 0.00 | 0.00 | 0.00 | 987.0 | ||
| 20260506103316 | -17 | 0.0 | 0.0 | 0.00 | 0.00 | 0.00 | 987.0 | ||
| 20260506102812 | -17 | 0.0 | 0.0 | 0.00 | 0.00 | 0.00 | 987.0 | ||
| 20260506101717 | -17 | 0.0 | 0.0 | 0.00 | 0.00 | 0.00 | 986.8 | ||
| 20260506100115 | -17 | 0.0 | 0.0 | 0.00 | 0.00 | 0.00 | 986.7 | ||
| 20260506095613 | -17 | 0.0 | 0.0 | 0.00 | 0.00 | 0.00 | 986.5 | ||
| 20260506095022 | -17 | 0.0 | 0.0 | 0.00 | 0.00 | 0.00 | 986.5 | ||
| 20260506094424 | -17 | 0.0 | 0.0 | 0.00 | 0.00 | 0.00 | 986.5 | ||
| 20260506093407 | -17 | 0.0 | 0.0 | 0.00 | 0.00 | 0.00 | 986.4 | ||
| 20260506092815 | -17 | 0.0 | 0.0 | 0.00 | 0.00 | 0.00 | 986.4 | ||
| 20260506092222 | -17 | 0.0 | 0.0 | 0.00 | 0.00 | 0.00 | 986.5 | ||
| 20260506091722 | -17 | 0.0 | 0.0 | 0.00 | 0.00 | 0.00 | 986.5 | ||
| 20260506091217 | -17 | 0.0 | 0.0 | 0.00 | 0.00 | 0.00 | 986.5 | ||
| 20260506090713 | -17 | 0.0 | 0.0 | 0.00 | 0.00 | 0.00 | 986.5 | ||
| 20260506090209 | -17 | 0.0 | 0.0 | 0.00 | 0.00 | 0.00 | 986.6 | ||
| 20260506085623 | -17 | 0.0 | 0.0 | 0.00 | 0.00 | 0.00 | 986.6 | ||
| 20260506085106 | -17 | 0.0 | 0.0 | 0.00 | 0.00 | 0.00 | 986.7 | ||
| 20260506084513 | -17 | 0.0 | 0.0 | 0.00 | 0.00 | 0.00 | 986.7 | ||
| 20260506083919 | -17 | 0.0 | 0.0 | 0.00 | 0.00 | 0.00 | 986.6 | ||
| 20260506083418 | -17 | 0.0 | 0.0 | 0.00 | 0.00 | 0.00 | 986.7 | ||
| 20260506082916 | -17 | 0.0 | 0.0 | 0.00 | 0.00 | 0.00 | 986.7 | ||
| 20260506081808 | -17 | 0.0 | 0.0 | 0.00 | 0.00 | 0.00 | 986.7 | ||
| 20260506081305 | -17 | 0.0 | 0.0 | 0.00 | 0.00 | 0.00 | 986.8 | ||
| 20260506080720 | -17 | 0.0 | 0.0 | 0.00 | 0.00 | 0.00 | 986.8 | ||
| 20260506080212 | -17 | 0.0 | 0.0 | 0.00 | 0.00 | 0.00 | 986.8 | ||
| 20260506073455 | 18 | 267 | 0.0 | 1.6 | 0.00 | 0.00 | 0.00 | 58 | 986.8 |
| 20260506072948 | 18 | 268 | 0.0 | 0.0 | 0.00 | 0.00 | 0.00 | 58 | 986.7 |
| 20260506072443 | 18 | 268 | 0.0 | 0.0 | 0.00 | 0.00 | 0.00 | 57 | 986.7 |
| 20260506071937 | 19 | 268 | 0.0 | 0.0 | 0.00 | 0.00 | 0.00 | 56 | 986.8 |
| 20260506071430 | 19 | 268 | 0.0 | 0.0 | 0.00 | 0.00 | 0.00 | 55 | 986.8 |
| 20260506070419 | 19 | 267 | 0.0 | 0.0 | 0.00 | 0.00 | 0.00 | 55 | 986.8 |
| 20260506062330 | 20 | 171 | 0.0 | 0.0 | 0.00 | 0.00 | 0.00 | 52 | 987.5 |
| 20260506061825 | 20 | 172 | 0.0 | 0.0 | 0.00 | 0.00 | 0.00 | 52 | 987.5 |
| 20260506061319 | 20 | 172 | 0.0 | 0.0 | 0.00 | 0.00 | 0.00 | 51 | 987.6 |
| 20260506060813 | 20 | 172 | 0.0 | 0.0 | 0.00 | 0.00 | 0.00 | 51 | 987.5 |
| 20260506060308 | 20 | 171 | 0.0 | 0.0 | 0.00 | 0.00 | 0.00 | 51 | 987.6 |
| 20260506051252 | 20 | 172 | 0.0 | 0.0 | 0.00 | 0.00 | 0.00 | 50 | 988.1 |
| 20260506050752 | 20 | 171 | 0.0 | 0.0 | 0.00 | 0.00 | 0.00 | 50 | 988.1 |
| 20260506050253 | 20 | 171 | 0.0 | 0.0 | 0.00 | 0.00 | 0.00 | 50 | 988.1 |
| 20260506044749 | 20 | 171 | 0.0 | 0.0 | 0.00 | 0.00 | 0.00 | 48 | 988.2 |
| 20260506044249 | 20 | 172 | 0.0 | 0.0 | 0.00 | 0.00 | 0.00 | 48 | 988.3 |
| 20260506043750 | 20 | 172 | 0.0 | 0.0 | 0.00 | 0.00 | 0.00 | 47 | 988.2 |
| 20260506043249 | 20 | 172 | 0.0 | 0.0 | 0.00 | 0.00 | 0.00 | 47 | 988.2 |
| 20260506042749 | 20 | 172 | 0.0 | 0.0 | 0.00 | 0.00 | 0.00 | 47 | 988.2 |
| 20260506042244 | 20 | 171 | 0.0 | 0.0 | 0.00 | 0.00 | 0.00 | 47 | 988.3 |
| 20260506041743 | 20 | 268 | 0.0 | 0.0 | 0.00 | 0.00 | 0.00 | 47 | 988.2 |
| 20260506041245 | 21 | 268 | 0.0 | 0.0 | 0.00 | 0.00 | 0.00 | 46 | 988.2 |
| 20260506040743 | 21 | 267 | 0.0 | 0.0 | 0.00 | 0.00 | 0.00 | 46 | 988.2 |
| 20260506040242 | 21 | 267 | 0.0 | 0.0 | 0.00 | 0.00 | 0.00 | 46 | 988.2 |
| 20260506035241 | 21 | 267 | 0.0 | 0.0 | 0.00 | 0.00 | 0.00 | 46 | 988.2 |
| 20260506034741 | 21 | 258 | 0.0 | 1.6 | 0.00 | 0.00 | 0.00 | 45 | 988.1 |
| 20260506034239 | 21 | 257 | 0.0 | 1.6 | 0.00 | 0.00 | 0.00 | 45 | 988.1 |
| 20260506033736 | 21 | 171 | 0.0 | 0.0 | 0.00 | 0.00 | 0.00 | 44 | 988.2 |
| 20260506033236 | 21 | 171 | 0.0 | 0.0 | 0.00 | 0.00 | 0.00 | 44 | 988.1 |
| 20260506032737 | 20 | 172 | 0.0 | 0.0 | 0.00 | 0.00 | 0.00 | 44 | 988.1 |
| 20260506032236 | 20 | 171 | 0.0 | 0.0 | 0.00 | 0.00 | 0.00 | 44 | 988.2 |
| 20260506031236 | 20 | 172 | 0.0 | 0.0 | 0.00 | 0.00 | 0.00 | 44 | 988.1 |
| 20260506030737 | 20 | 171 | 0.0 | 0.0 | 0.00 | 0.00 | 0.00 | 43 | 988.1 |
| 20260506030230 | 21 | 172 | 0.0 | 0.0 | 0.00 | 0.00 | 0.00 | 43 | 988.1 |
| 20260506025725 | 21 | 171 | 0.0 | 0.0 | 0.00 | 0.00 | 0.00 | 43 | 988.1 |
| 20260506025219 | 21 | 171 | 0.0 | 0.0 | 0.00 | 0.00 | 0.00 | 43 | 988.2 |
| 20260506024713 | 21 | 171 | 0.0 | 0.0 | 0.00 | 0.00 | 0.00 | 43 | 988.2 |
| 20260506023701 | 21 | 172 | 0.0 | 0.0 | 0.00 | 0.00 | 0.00 | 41 | 988.2 |
| 20260506023153 | 21 | 172 | 0.0 | 0.0 | 0.00 | 0.00 | 0.00 | 41 | 988.2 |
| 20260506022649 | 21 | 171 | 0.0 | 0.0 | 0.00 | 0.00 | 0.00 | 40 | 988.2 |
| 20260506022143 | 21 | 171 | 0.0 | 0.0 | 0.00 | 0.00 | 0.00 | 40 | 988.1 |
| 20260506021637 | 21 | 172 | 0.0 | 0.0 | 0.00 | 0.00 | 0.00 | 40 | 988.1 |